Simultaneous Nadir Overpasses (SNOs) Predictions

Prediction of SNOs between METOP-A and TERRA Satellite Orbit:

Table of predicted SNOs for the next 14.0 days since TLE Epoch: 2/27/2012
Index Date (METOP-A) Time (METOP-A) METOP-A Lat,Lon Date (TERRA) Time (TERRA) TERRA Lat,Lon Distance(km) Time Diff (sec)
1 02/29/2012 04:24:21 81.29, 160.62 02/29/2012 04:24:44 81.29, 160.76 2.40 23
2 02/29/2012 05:15:01 -81.29, -31.52 02/29/2012 05:14:11 -81.28, -31.70 3.32 50
3 03/02/2012 23:58:45 81.29,-132.95 03/02/2012 23:58:59 81.28,-132.91 0.87 14
4 03/03/2012 00:49:25 -81.29, 34.93 03/03/2012 00:48:25 -81.30, 35.02 1.61 60
5 03/05/2012 19:33:08 81.29, -66.19 03/05/2012 19:33:12 81.30, -66.14 1.23 4
6 03/05/2012 20:23:49 -81.29, 101.31 03/05/2012 20:22:39 -81.30, 101.43 2.01 70
7 03/08/2012 14:16:52
